Vorticity
12 11 11 10 9 8 10 3 7 17 10 -9 -25 9 31 12 2 3 -37 14 15 8 5 6 8 10 6 5 4 3 3 3 3 4 9 7 8 6 5 4 5 6 6 5 6 5 5 5 5
11 8 8 4 -3 13 -1 13 29 -1 9 -15 10 14 3 13 8 17 35 -17 7 11 8 8 7 9 7 6 4 3 3 3 3 8 7 9 7 4 4 6 7 5 4 5 5 4 4 4 4
10 9 6 2 12 2 4 21 9 -3 7 4 5 6 14 8 8 5 11 1 3 3 6 6 10 7 6 5 5 4 3 3 3 9 8 7 5 5 6 7 3 4 5 3 2 2 3 4 4
5 7 6 13 7 3 17 20 4 6 10 3 12 7 10 17 8 -1 -9 2 14 37 10 4 2 14 7 7 5 4 3 5 6 8 7 6 4 6 8 3 4 2 0 4 5 8 7 6 6
3 6 12 4 10 13 12 1 2 4 2 10 11 -1 -1 14 11 14 11 11 18 14 6 17 15 8 6 5 4 5 6 5 6 7 7 4 6 8 4 2 4 0 2 6 3 3 7 6 -3
9 -1 8 -1 36 15 7 6 10 7 13 10 12 10 -1 15 6 5 -6 16 12 5 5 12 11 7 6 5 5 4 6 6 9 7 7 4 6 6 1 4 1 1 2 3 2 4 6 5 3
0 8 2 15 8 12 3 24 13 10 4 12 -4 4 8 6 6 9 20 8 2 12 15 15 13 8 7 5 10 7 6 8 9 7 1 7 6 4 3 3 2 1 1 3 2 5 6 7 9
14 12 5 11 -2 11 6 5 2 12 1 -20 2 1 24 17 9 2 3 9 12 9 -1 -2 -3 27 6 7 10 2 8 7 8 5 11 8 3 3 3 1 1 1 3 4 7 7 7 8 5
9 6 11 8 1 0 1 9 10 6 7 15 -2 11 -4 10 10 11 8 6 9 3 10 10 21 10 12 13 19 1 3 11 6 4 10 -1 -1 3 2 1 1 1 3 3 3 4 6 6 5
6 3 12 5 1 0 5 8 10 15 5 9 10 2 4 -2 6 5 11 10 12 6 8 9 7 21 -20 24 -5 -1 4 4 4 10 -2 10 2 2 1 1 1 1 1 2 2 -1 5 4 7
6 3 6 -4 10 1 7 -15 16 8 8 -16 19 13 12 14 12 4 9 4 7 4 17 8 7 36 13 31 -4 12 2 2 11 -10 -8 -5 -0 3 1 0 2 2 1 1 3 2 4 8 5
1 6 7 4 5 18 7 18 4 6 16 16 21 11 12 14 15 12 7 4 3 20 24 16 24 23 3 -7 15 12 4 7 -4 19 -0 4 1 1 1 0 2 2 2 1 4 4 4 9 6
5 5 8 17 17 6 2 8 2 12 9 7 14 30 13 11 9 3 10 8 20 -5 11 12 49 9 64 -25 25 27 6 3 0 -5 4 1 1 0 1 1 2 2 3 4 4 6 6 10 4
0 8 6 4 -1 7 11 7 11 -6 10 2 8 17 36 23 22 14 18 11 21 6 2 -5 14 4 -23 2 42 2 14 11 -4 -4 5 3 2 1 1 1 1 3 4 4 5 11 10 4 4
3 8 9 19 8 2 12 -18 7 13 8 13 3 17 9 18 17 11 10 37 20 8 9 25 22 59 46 30 33 43 0 0 -1 7 3 2 2 1 3 1 3 2 6 6 6 6 6 5 4
2 11 12 7 4 6 9 -4 9 8 19 4 7 11 6 37 19 -9 -0 5 45 31 31 47 21 1 4 2 -1 -5 2 9 2 4 7 3 3 3 3 3 2 6 8 6 7 8 6 4 4
3 0 21 13 14 3 7 47 8 10 4 8 9 9 5 -1 -1 -12 -8 2 -1 8 -6 2 4 3 2 -9 -1 1 -6 6 6 6 6 5 5 3 3 2 2 6 7 6 8 8 5 4 2
14 7 7 15 59 -1 2 -5 9 6 8 7 8 2 21 6 5 7 6 5 10 7 7 6 8 4 4 2 5 11 12 9 6 3 5 5 4 5 2 1 4 7 5 7 6 7 5 4 3
19 5 2 3 -2 9 9 9 12 7 7 8 6 4 4 0 7 6 9 12 7 2 3 6 8 7 9 11 9 7 8 6 6 8 7 7 5 5 5 2 4 7 5 6 6 4 4 3 3
10 8 5 1 8 3 4 10 10 6 7 10 11 5 9 8 6 5 10 -5 13 8 9 7 6 5 6 8 8 8 8 6 7 7 9 9 7 7 4 2 2 2 3 5 5 4 3 3 3
6 1 5 2 8 8 5 8 5 10 6 7 9 11 9 10 3 8 8 12 3 6 7 4 6 7 6 5 5 6 5 4 4 3 5 7 7 8 5 4 3 3 4 4 5 5 4 4 3
3 12 2 3 8 17 8 9 6 13 7 5 8 8 10 10 4 4 8 9 7 5 5 5 5 3 2 3 2 2 3 3 4 4 5 7 7 8 5 6 7 9 6 5 7 5 5 4 -1
4 12 3 8 15 3 17 5 18 8 5 8 9 6 7 10 9 -1 6 5 5 6 6 5 4 5 4 4 5 4 4 3 3 3 2 2 1 4 5 4 3 4 8 9 7 10 7 -5 7
2 10 9 7 8 24 6 5 16 18 17 17 23 17 8 6 4 11 0 5 6 6 5 6 5 4 5 4 5 4 5 3 1 5 -2 4 7 8 13 13 10 5 6 4 13 5 5 8 17
7 4 10 12 15 1 22 12 3 8 12 4 5 10 19 10 5 6 7 5 5 2 2 1 4 3 4 2 7 1 1 -1 14 -2 6 9 5 3 1 9 12 9 10 12 8 11 -6 5 11
6 2 -28 6 15 20 -2 12 15 18 4 8 10 15 18 17 13 5 6 6 6 -1 -2 2 4 5 8 6 -3 24 -6 24 5 80 8 -2 6 8 5 7 15 10 12 12 8 2 -4 9 4
-1 4 4 10 5 8 -6 4 2 4 14 11 11 13 15 22 15 19 8 5 4 6 3 2 4 3 7 -0 39 61 -4 3 8 2 5 4 7 5 9 16 11 9 8 6 -1 -4 22 1 9
-5 17 3 2 6 6 21 15 1 3 7 4 9 12 12 16 21 23 21 16 10 11 7 -3 4 2 1 5 6 10 6 2 15 4 1 8 12 7 12 10 12 1 -6 15 1 11 1 -3 14
4 3 10 10 4 13 9 7 8 -0 6 3 8 2 3 6 13 15 28 17 11 6 -1 8 17 20 16 5 6 3 5 1 8 13 8 9 6 9 9 11 1 27 27 11 8 -8 15 -4 -2
17 12 -4 -6 6 10 8 19 -22 -2 11 5 16 5 7 3 6 7 9 14 15 13 16 10 9 5 7 9 17 21 3 1 11 7 7 4 6 6 7 9 3 8 -24 10 4 6 7 6 0
Height
3130 3130 3130 3133 3137 3129 3122 3119 3116 3117 3117 3118 3116 3114 3113 3116 3126 3120 3099 3117 3124 3123 3125 3127 3131 3134 3138 3140 3144 3147 3151 3154 3156 3158 3160 3161 3163 3164 3166 3167 3167 3167 3169 3170 3171 3171 3172 3173 3174
3129 3130 3130 3131 3131 3121 3115 3116 3115 3118 3118 3107 3123 3117 3112 3114 3121 3118 3120 3125 3121 3123 3125 3126 3129 3132 3135 3139 3142 3146 3150 3153 3156 3159 3160 3162 3164 3165 3166 3167 3168 3169 3171 3171 3173 3173 3174 3174 3174
3128 3129 3132 3130 3124 3119 3113 3113 3116 3118 3119 3116 3121 3122 3120 3117 3120 3118 3122 3122 3122 3120 3124 3126 3128 3131 3134 3137 3141 3145 3149 3153 3156 3159 3161 3161 3164 3166 3167 3168 3169 3171 3172 3173 3174 3174 3175 3174 3175
3128 3131 3131 3127 3120 3118 3116 3116 3118 3119 3120 3122 3123 3120 3119 3117 3116 3116 3118 3119 3118 3119 3120 3123 3128 3128 3132 3136 3140 3144 3149 3153 3156 3158 3160 3161 3164 3166 3168 3170 3171 3172 3174 3174 3174 3175 3175 3176 3176
3129 3131 3127 3121 3118 3117 3118 3117 3118 3120 3120 3118 3120 3115 3113 3115 3115 3114 3114 3115 3115 3114 3119 3122 3125 3127 3129 3134 3139 3143 3149 3153 3155 3158 3160 3162 3165 3167 3170 3172 3172 3173 3175 3175 3174 3175 3176 3176 3177
3131 3130 3124 3116 3114 3117 3118 3117 3119 3119 3119 3119 3116 3096 3087 3113 3114 3113 3114 3115 3117 3116 3115 3118 3123 3125 3127 3132 3137 3142 3147 3153 3156 3158 3161 3163 3166 3168 3170 3172 3172 3174 3175 3176 3176 3176 3176 3177 3177
3130 3128 3121 3118 3117 3118 3114 3106 3116 3116 3117 3113 3112 3113 3111 3112 3111 3112 3113 3114 3112 3113 3113 3116 3119 3122 3126 3129 3134 3139 3145 3151 3156 3159 3161 3165 3167 3170 3171 3172 3173 3174 3175 3176 3176 3177 3176 3176 3176
3129 3127 3120 3118 3119 3120 3118 3116 3117 3116 3108 3100 3111 3114 3111 3110 3110 3110 3110 3109 3108 3108 3110 3113 3114 3118 3121 3125 3129 3134 3141 3150 3156 3159 3161 3165 3168 3170 3171 3172 3174 3175 3175 3176 3176 3176 3177 3177 3177
3127 3124 3119 3118 3118 3119 3118 3117 3116 3112 3108 3107 3108 3109 3108 3108 3109 3108 3108 3107 3107 3108 3111 3111 3114 3114 3115 3121 3126 3133 3140 3149 3154 3158 3160 3164 3167 3170 3172 3173 3175 3175 3175 3176 3176 3176 3177 3177 3177
3127 3121 3119 3120 3119 3119 3118 3117 3112 3110 3112 3111 3106 3104 3106 3107 3108 3106 3106 3106 3106 3106 3109 3110 3110 3116 3118 3112 3120 3125 3137 3145 3152 3157 3159 3160 3168 3169 3172 3173 3175 3176 3176 3176 3176 3176 3176 3176 3176
3126 3123 3121 3121 3119 3118 3117 3115 3111 3112 3106 3079 3103 3104 3101 3102 3105 3104 3104 3105 3105 3105 3107 3109 3110 3113 3112 3113 3119 3124 3136 3144 3147 3154 3159 3165 3166 3170 3172 3173 3174 3175 3175 3175 3175 3176 3175 3175 3175
3125 3123 3121 3120 3119 3117 3115 3112 3108 3113 3109 3104 3102 3101 3099 3099 3100 3102 3102 3103 3104 3104 3104 3106 3108 3108 3110 3112 3117 3122 3131 3141 3146 3148 3154 3162 3166 3169 3171 3172 3174 3174 3174 3175 3174 3174 3175 3174 3174
3124 3122 3121 3119 3116 3116 3114 3113 3107 3105 3105 3102 3100 3097 3097 3098 3098 3099 3100 3099 3099 3102 3103 3103 3103 3106 3107 3111 3113 3123 3131 3139 3140 3150 3156 3162 3166 3168 3169 3171 3172 3172 3173 3173 3173 3173 3174 3173 3172
3122 3121 3120 3118 3116 3114 3112 3110 3107 3104 3102 3101 3097 3097 3097 3097 3097 3097 3099 3097 3095 3099 3101 3105 3106 3108 3110 3113 3117 3122 3130 3139 3145 3153 3157 3162 3164 3166 3168 3171 3171 3172 3172 3172 3171 3171 3170 3169 3169
3121 3120 3118 3115 3115 3113 3111 3100 3108 3104 3103 3102 3099 3099 3098 3096 3096 3093 3099 3096 3095 3097 3100 3102 3106 3110 3112 3114 3117 3125 3135 3140 3146 3152 3156 3161 3163 3165 3167 3168 3169 3170 3170 3169 3168 3168 3168 3168 3167
3119 3116 3117 3115 3113 3112 3109 3101 3108 3104 3104 3105 3105 3102 3101 3098 3097 3101 3103 3103 3097 3100 3103 3105 3109 3110 3116 3121 3126 3131 3136 3141 3147 3151 3156 3158 3161 3163 3166 3167 3167 3168 3167 3167 3166 3166 3165 3164 3163
3115 3112 3115 3111 3111 3109 3110 3096 3102 3105 3107 3108 3108 3106 3104 3103 3102 3104 3106 3107 3105 3108 3110 3112 3114 3118 3123 3128 3133 3137 3140 3144 3147 3151 3153 3156 3159 3162 3163 3165 3165 3165 3165 3164 3163 3163 3162 3161 3160
3108 3107 3108 3107 3106 3110 3108 3107 3106 3104 3108 3109 3109 3108 3105 3106 3106 3106 3107 3109 3110 3112 3113 3116 3119 3123 3127 3132 3135 3138 3141 3145 3147 3149 3151 3153 3156 3159 3161 3161 3163 3161 3161 3161 3160 3159 3158 3158 3157
3109 3107 3107 3107 3108 3108 3107 3106 3106 3105 3107 3109 3110 3108 3107 3108 3108 3109 3109 3111 3113 3114 3116 3119 3122 3126 3130 3132 3135 3138 3140 3143 3145 3147 3149 3151 3154 3156 3157 3158 3158 3158 3157 3157 3156 3155 3154 3154 3153
3110 3109 3106 3107 3107 3108 3106 3107 3105 3105 3107 3109 3110 3111 3110 3110 3109 3110 3110 3112 3114 3116 3118 3121 3123 3127 3129 3133 3135 3137 3139 3141 3144 3146 3147 3150 3151 3152 3154 3154 3154 3154 3153 3153 3151 3151 3149 3148 3148
3109 3107 3108 3106 3108 3106 3104 3103 3103 3106 3107 3108 3109 3109 3110 3110 3110 3111 3112 3114 3115 3116 3119 3121 3123 3126 3129 3131 3134 3136 3138 3140 3142 3143 3146 3147 3148 3149 3150 3150 3148 3148 3148 3147 3147 3146 3145 3142 3142
3106 3106 3107 3107 3106 3101 3103 3102 3101 3101 3105 3106 3107 3108 3110 3110 3111 3111 3112 3114 3116 3117 3119 3121 3123 3125 3128 3130 3132 3134 3135 3138 3139 3140 3142 3142 3143 3145 3145 3144 3144 3144 3143 3142 3142 3140 3140 3138 3134
3106 3106 3107 3106 3103 3100 3097 3096 3096 3098 3099 3101 3104 3106 3108 3109 3110 3110 3111 3113 3115 3117 3118 3121 3123 3125 3127 3128 3130 3132 3134 3135 3136 3136 3136 3138 3139 3140 3139 3138 3138 3139 3138 3136 3136 3134 3133 3132 3130
3105 3106 3106 3105 3101 3099 3095 3092 3100 3092 3095 3097 3098 3101 3104 3107 3108 3109 3110 3112 3113 3115 3117 3119 3121 3122 3124 3125 3126 3129 3130 3132 3133 3132 3131 3132 3134 3135 3134 3133 3133 3133 3131 3130 3129 3127 3127 3124 3122
3103 3103 3101 3099 3096 3095 3097 3093 3090 3094 3094 3096 3098 3100 3101 3103 3105 3106 3108 3109 3110 3112 3114 3116 3118 3119 3120 3120 3123 3126 3127 3127 3127 3118 3119 3125 3127 3128 3128 3126 3125 3125 3124 3122 3121 3121 3119 3117 3115
3099 3099 3096 3104 3090 3089 3095 3090 3090 3091 3093 3095 3096 3097 3098 3099 3100 3102 3105 3107 3108 3109 3111 3113 3114 3116 3116 3114 3116 3119 3122 3122 3118 3112 3111 3118 3120 3120 3121 3120 3119 3117 3116 3115 3114 3112 3112 3110 3108
3093 3094 3096 3097 3094 3093 3088 3086 3088 3089 3091 3092 3094 3094 3095 3095 3096 3098 3101 3104 3106 3106 3105 3108 3110 3112 3112 3111 3111 3102 3114 3116 3115 3114 3113 3114 3115 3114 3113 3112 3111 3109 3108 3108 3106 3105 3104 3101 3098
3089 3091 3094 3093 3091 3093 3084 3083 3083 3089 3090 3091 3092 3093 3093 3092 3092 3093 3096 3100 3101 3102 3103 3101 3104 3105 3106 3107 3106 3107 3109 3110 3109 3109 3108 3108 3107 3106 3105 3105 3104 3103 3101 3099 3098 3096 3095 3092 3089
3088 3086 3088 3088 3089 3089 3085 3082 3086 3086 3088 3090 3091 3091 3092 3092 3089 3089 3090 3092 3094 3096 3096 3095 3097 3098 3098 3102 3103 3103 3104 3104 3104 3104 3104 3103 3101 3100 3100 3099 3097 3095 3092 3091 3091 3089 3085 3083 3080
3081 3082 3084 3085 3085 3085 3086 3084 3083 3085 3086 3087 3088 3089 3089 3089 3090 3089 3088 3088 3089 3090 3091 3091 3093 3094 3094 3093 3097 3098 3098 3099 3100 3100 3099 3098 3096 3095 3093 3092 3090 3088 3086 3083 3084 3081 3077 3075 3071